Regional Weather Roundup
Issued by NWS

Home | Current Version | Previous Version | Text Only | Print | Product List | Glossary On
Versions: 1 2 3 4 5 6 7 8 9 10 11 12 13 14 15 16 17 18 19 20 21 22 23 24 25 26 27 28 29 30 31 32 33 34 35 36 37 38 39 40 41 42 43 44 45 46 47 48 49 50
000
ASUS43 KLOT 010510
RWRIL

ILLINOIS REGIONAL WEATHER ROUNDUP
NATIONAL WEATHER SERVICE CHICAGO/ROMEOVILLE IL
1100 PM CST SAT FEB 28 2015

NOTE: "FAIR" INDICATES FEW OR NO CLOUDS BELOW 12,000 FEET WITH NO
SIGNIFICANT WEATHER AND/OR OBSTRUCTIONS TO VISIBILITY.

* THESE STATIONS ARE NOT UNDER NWS QUALITY CONTROL. THEY ALSO MAY NOT
  REPORT WEATHER SUCH AS PRECIPITATION OR FOG.

ILZ001-002-007-009-015-016-024-010600-
NORTHWEST ILLINOIS

CITY           SKY/WX    TMP DP  RH WIND       PRES   REMARKS
MOLINE         MOCLDY     9   6  88 E6        30.44F FOG     WCI  -1
STERLING*      CLOUDY    10   9  92 SE5       30.46F WCI   2
SAVANNA*       FLURRIES  10   7  87 CALM      30.45F
$$

ILZ003-004-008-010-011-017-018-010600-
NORTH CENTRAL ILLINOIS

CITY           SKY/WX    TMP DP  RH WIND       PRES   REMARKS
ROCKFORD       PTCLDY    13   9  84 SE5       30.46F WCI   5
FREEPORT*      LGT SNOW  10   8  89 SE3       30.46F
ROCHELLE*      FLURRIES  10   8  91 SE6       30.46F WCI   1
DE KALB*       CLOUDY    13  11  90 SE6       30.46F WCI   4
PERU*          FLURRIES  19  17  88 SE6       30.47S WCI  11
$$

ILZ005-006-012>014-019>023-010600-
NORTHEAST ILLINOIS

CITY           SKY/WX    TMP DP  RH WIND       PRES   REMARKS
CHICAGO-OHARE  FLURRIES  17  13  84 S7        30.47F WCI   8
CHICAGO-MIDWAY CLOUDY    20  14  77 SE7       30.48F WCI  11
AURORA         CLOUDY    17  11  77 E3        30.47F HAZE
LANSING*       LGT SNOW  18  15  87 CALM      30.48F
JOLIET*        LGT SNOW  18  15  88 SE5       30.47F WCI  11
WAUKEGAN       CLOUDY    16  13  88 S3        30.47F FOG
DUPAGE AIRPORT CLOUDY    17  13  84 CALM      30.46F
KANKAKEE*      LGT SNOW  19  17  91 E6        30.47F WCI  11
WHEELING       CLOUDY    18  14  84 S5        30.49F FOG     WCI  11
MORRIS*        LGT SNOW  18  17  93 SE5       30.47F WCI  11
ROMEOVILLE*    LGT SNOW  18  15  86 SE5       30.47F WCI  11
NORTHERLY ISL    N/A     19  14  81 S6          N/A  WCI  11
$$

LMZ740>746-010600-
SOUTHERN LAKE MICHIGAN

STATION/POSITION SKY/WX   TEMP    WIND        PRES    VSBY  WAVE
                          AIR SEA DIR/SP/G                  HT/PER
                          (F)     (DEG/KT/KT) (MB)    (MI)  (FT/S)
WAUKEGAN HARBOR            19     210/  8/ 11   N/A
HARRISON CRIB              19     180/ 14/ 17   N/A
BURNHAM HARBOR             19     160/  5/ 10   N/A
CALUMET HARBOR             18     140/  4/  5 1030.9F
MICHIGAN CITY              18     120/  6/  8   N/A
$$

ILZ025>027-034>036-040-047-049-050-058-095>099-010600-
WEST-CENTRAL ILLINOIS

CITY           SKY/WX    TMP DP  RH WIND       PRES   REMARKS
QUINCY         LGT SNOW  20  18  92 SE6       30.41F VSB 1   WCI  12
GALESBURG*     FLURRIES  18  16  93 CALM      30.44S
MACOMB*        LGT SNOW  20  19  94 SE5       30.46F WCI  14
JACKSONVILLE*  LGT SNOW  23  21  90 E5        30.44F VSB 3/4 WCI  17
PITTSFIELD*    LGT SNOW  23  21  92 CALM      30.44F
$$

ILZ028>032-037-038-041>044-048-051>054-059>061-010600-
CENTRAL ILLINOIS

CITY           SKY/WX    TMP DP  RH WIND       PRES   REMARKS
PONTIAC        LGT SNOW  20  19  93 SE6       30.47F WCI  12
BLOOMINGTON    LGT SNOW  19  18  93 SE3       30.44F FOG
DECATUR        SNOW      22  20  92 E6        30.45F VSB 1/2 WCI  14
PEORIA         LGT SNOW  22  17  81 SE6       30.46F WCI  14
LACON*         LGT SNOW  19  15  88 CALM      30.46F
LINCOLN*       LGT SNOW  22  20  91 SE3       30.48F
SPRINGFIELD    LGT SNOW  22  20  92 E5        30.45F VSB 3/4 WCI  16
TAYLORVILLE    LGT SNOW  21  21 100 E3        30.44F
$$

ILZ033-039-045-046-055>057-062-063-010600-
EAST-CENTRAL ILLINOIS

CITY           SKY/WX    TMP DP  RH WIND       PRES   REMARKS
CHAMPAIGN      LGT SNOW  21  18  88 E8        30.44F VSB 3/4 WCI  11
DANVILLE*      LGT SNOW  20  19  94 SE5       30.43F VSB 1   WCI  14
RANTOUL*       LGT SNOW  22  20  91 SE6       30.45S WCI  15
MATTOON        LGT SNOW  23  21  92 SE6       30.43F VSB 3/4 WCI  16
PARIS*         LGT SNOW  23  22  95 CALM      30.46F
$$

ILZ079-100>102-010600-
SOUTHWEST ILLINOIS

CITY           SKY/WX    TMP DP  RH WIND       PRES   REMARKS
ALTON          LGT SNOW  24  23  95 E5        30.43F WCI  18
BELLEVILLE     LGT SNOW  25  25  99 E6        30.41F FOG     WCI  18
CAHOKIA*       LGT SNOW  26  24  92 NE3       30.43F FOG
SPARTA*        LGT SNOW  26  25  96 SE5       30.44F WCI  21
$$

ILZ064>066-069>071-074>076-080>082-084>086-088>090-092>094-010600-
SOUTH-CENTRAL ILLINOIS

CITY           SKY/WX    TMP DP  RH WIND       PRES   REMARKS
CARBONDALE     CLOUDY    30  22  72 E6        30.43F WCI  24
CAIRO*         CLOUDY    34  23  63 NE6       30.44S WCI  29
EFFINGHAM*     LGT SNOW  24  22  89 E3        30.46F VSB 3/4
MARION         CLOUDY    32  21  64 E6        30.45F WCI  26
MT. VERNON     CLOUDY    27  23  86 CALM      30.45F
CENTRALIA*     LGT SNOW  26  24  93 NE3       30.43F
SALEM*         LGT SNOW  27  25  91 CALM      30.44F
METROPOLIS*    CLOUDY    33  22  63 NE5       30.43S WCI  29
$$

ILZ067-068-072-073-078-083-087-091-010600-
SOUTHEAST ILLINOIS

CITY           SKY/WX    TMP DP  RH WIND       PRES   REMARKS
LAWRENCEVILLE  LGT SNOW  27  25  92 E9        30.46F VSB 3/4 WCI  18
FLORA*         LGT SNOW  25  24  97 CALM      30.46F VSB 3/4
FAIRFIELD*     LGT SNOW  28  27  96 SE5       30.44F WCI  22
HARRISBURG*    CLOUDY    31  22  70 NE3       30.47S
ROBINSON*      LGT SNOW  26  25  98 SE6       30.47F VSB 1   WCI  19
CARMI*         FLURRIES  32  27  80 SE6       30.46S WCI  27
$$

ABBREVIATIONS USED IN REMARKS
   TC - TEMPERATURE IN CELSIUS
  WCI - WIND CHILL INDEX
   HX - HEAT INDEX
  VSB - VISIBILITY
$$



USA.gov is the U.S. government's official web portal to all federal, state and local government web resources and services.